This demonstration page uses our WeatherBlox Daily Observations layout. Learn more.

Left ArrowRight Arrow

Hourly Observations for July 14, 2022

Temp ( °F °C ) Dew Point ( °F °C ) Humidity (%) Winds ( mph kmh ) Pressure ( in mb ) Visibility ( mi km ) Precip ( " mm )
12:59 am 00:59 Mostly Cloudy 75 23.9 73 22.8 94 94 S 6 9 29.97 1015 10 16 0.00 0.00
1:59 am 01:59 Mostly Cloudy 75 23.9 73 22.8 94 94 SSW 9 15 29.97 1015 10 16 0.00 0.00
2:59 am 02:59 Mostly Cloudy 76 24.4 73 22.8 91 91 SW 7 11 29.95 1014 10 16 0.00 0.00
3:59 am 03:59 Mostly Cloudy 75 23.9 73 22.8 94 94 WSW 7 11 29.94 1014 10 16 0.00 0.00
4:59 am 04:59 Partly Cloudy 75 23.9 73 22.8 94 94 SW 8 13 29.95 1014 10 16 0.00 0.00
5:59 am 05:59 Partly Cloudy 75 23.9 72 22.2 90 90 W 5 7 29.98 1015 10 16 0.00 0.00
6:59 am 06:59 Partly Cloudy 75 23.9 71 21.7 88 88 W 8 13 29.99 1016 10 16 0.00 0.00
7:59 am 07:59 Mostly Cloudy 77 25 72 22.2 85 85 W 8 13 30.00 1016 10 16 0.00 0.00
8:59 am 08:59 Mostly Cloudy 77 25 72 22.2 85 85 W 8 13 30.01 1016 9 14 0.00 0.00
9:59 am 09:59 Mostly Cloudy 77 25 72 22.2 85 85 WSW 5 7 30.03 1017 9 14 0.00 0.00
10:59 am 10:59 Mostly Cloudy 97 36.1 73 22.8 46 46 Calm 30.05 1018 10 16 0.00 0.00
11:59 am 11:59 Mostly Cloudy 85 29.4 65 18.3 51 51 Calm 30.06 1018 10 16 0.00 0.00
12:59 pm 12:59 Mostly Cloudy 85 29.4 65 18.3 51 51 WNW 5 7 30.06 1018 10 16 0.00 0.00
1:59 pm 13:59 Mostly Cloudy 88 31.1 64 17.8 45 45 W 7 11 30.06 1018 10 16 0.00 0.00
2:59 pm 14:59 Mostly Cloudy 88 31.1 64 17.8 45 45 W 6 9 30.05 1018 10 16 0.00 0.00
3:59 pm 15:59 Mostly Cloudy 87 30.6 63 17.2 45 45 W 6 9 30.05 1018 10 16 0.00 0.00
4:59 pm 16:59 Mostly Cloudy 87 30.6 63 17.2 45 45 WSW 5 7 30.04 1017 10 16 0.00 0.00
5:59 pm 17:59 Mostly Cloudy 89 31.7 61 16.1 39 39 Calm 30.03 1017 10 16 0.00 0.00
6:59 pm 18:59 Mostly Cloudy 87 30.6 69 20.6 55 55 Calm 30.03 1017 10 16 0.00 0.00
7:59 pm 19:59 Mostly Cloudy 83 28.3 67 19.4 59 59 SSW 5 7 30.04 1017 10 16 0.00 0.00
8:59 pm 20:59 Mostly Cloudy 82 27.8 68 20 63 63 Calm 30.06 1018 10 16 0.00 0.00
9:59 pm 21:59 Mostly Cloudy 80 26.7 71 21.7 74 74 Calm 30.08 1019 10 16 0.00 0.00
10:59 pm 22:59 Mostly Cloudy 80 26.7 72 22.2 76 76 SSW 3 6 30.09 1019 10 16 0.00 0.00
11:59 pm 23:59 Mostly Cloudy 79 26.1 72 22.2 79 79 SSW 6 9 30.09 1019 10 16 0.00 0.00

Powered by AerisWeather